FENGYUN 1C DEB

Satellite information

Favourite Embed

Satellite Type and Status

DEBRISIN ORBIT

Key statistics

Satellite FENGYUN 1C DEB at a glance.

Uptime

9665

Days in orbit

Revolutions

≈ 14.4

Per day

Orbit

SSO

Sun Synchronous Orbit

Inclination

98.9

Latest

Satellite identification and parameters

Extended collection of information and parameters for FENGYUN 1C DEB.

Object identification

Identified? True

Debris? True

Object name: FENGYUN 1C DEB

International designator: 1999-025AJE

Object number (NORAD): 30516

Object ID (CCSDS): 30516

Country: PEOPLES REPUBLIC OF CHINA (PRC)

Current information (Y/N): Y

RCS size: SMALL

Orbital parameters

Period: 99.973 minutes

Inclination: 98.8575 deg

SMA: 7135.347 km

Apoapsis: 764.178 km

Periapsis: 750.245 km

RAAN: 40.2322 deg

Eccentricy: 0.00097636

Argument of periapsis: 93.5979 deg

Mean anomaly: 332.0461 deg

Mean motion: 14.40390144 rev/day

Mean motion (dot): 0.00008694 rev/day2

B* drag term: 0.00274882 1/REarth

Two-line elements (TLE)

Creation date: Oct. 25, 2025, 3:11 a.m.

Reference frame: TEME

Reference center: EARTH

Epoch: Oct. 24, 2025, 10:44 p.m. UTC

TLE line 0: 0 FENGYUN 1C DEB

TLE line 1: 1 30516U 99025AJE 25297.94765436 .00008694 00000-0 27488-2 0 9997

TLE line 2: 2 30516 98.8575 40.2322 0009764 93.5979 332.0461 14.40390144970128

Live tracking on map

Real-time ground track for satellite FENGYUN 1C DEB.

In-orbit conjunctions

A list of the most updated potential collisions computed for object FENGYUN 1C DEB.

Target Orbit TCA Probability of collision Miss distance Type
TITAN 3C TRANSTAGE DEB LEO 2025-05-29 08:48:03 0.0001527497 264.0 (m) DEBRIS
IRIDIUM 42 LEO 2025-03-29 15:13:54 0.0002367582 463.0 (m) PAYLOAD
CZ-6A DEB LEO 2024-12-31 18:28:02 0.0001358965 691.0 (m) DEBRIS

Associated space launch

Chinese polar orbiting meteorological satellite

FENGYUN 1C DEB was lifted into orbit during the mission ‘Long March 4B | Feng Yun 1C’, on board a Long March 4B space rocket.

The launch took place on May 10, 1999, 1:33 a.m. from Launch Complex 7.

For more information about the launch, click the button.

Launch to space Long March 4B | Feng Yun 1C
Long March 4B | Feng Yun 1C

Agency: N/A

Status: Launch Successful

Launch date: May 10, 1999, 1:33 a.m. UTC

Rocket: Long March 4B

Launch pad: Launch Complex 7

Location: Taiyuan Satellite Launch Center, People's Republic of China

...

Latest news about this satellite

There are no fresh news available about this satellite. Check back as we update our databases every day.


Newsletter sign-up

Weekly statistics, charts and insights to help you stay on top of the space industry.